Tracking 20242 objects as of 24-Jan-2020
HD Live streaming from Space Station
objects crossing your sky now

COSMOS 2251 DEB

Track COSMOS 2251 DEB now!
10-day predictions


NORAD ID: 35701
Int'l Code: 1993-036APW
Perigee: 768.1 km
Apogee: 1,234.8 km
Inclination: 74.0 °
Period: 105.0 minutes
Semi major axis: 7372 km
RCS: 0.0086 m2 (small)
Launch date: June 16, 1993
Source: Commonwealth of Independent States (former USSR) (CIS)
Launch site: PLESETSK MISSILE AND SPACE COMPLEX (PKMTR)

Note: This is SATELLITE DEBRIS
aabbcc
Your satellite tracking list
Your tracking list is empty




NASA's NSSDC Master Catalog

Two Line Element Set (TLE):
1 35701U 93036APW 20023.39870656  .00000232  00000-0  19937-3 0  9997
2 35701  74.0109 279.6557 0316574 227.4871 129.9113 13.71467184541971
Source of the keplerian elements: AFSPC